Terminal Aerodrome Forecast
Issued by NWS Charleston, WV

Current Version | Previous Version | Graphics & Text | Print | Product List | Glossary On
Versions: 1 2 3 4 5 6 7 8 9 10 11 12 13 14 15 16 17 18 19 20 21 22 23 24 25 26 27
000
FTUS41 KRLX 310500 RRA
TAFCRW
TAF
KCRW 310543Z 3106/0106 00000KT 6SM SHRA VCTS OVC070CB
     FM310900 00000KT 6SM -SHRA BR OVC050
     FM311200 22005KT P6SM OVC020
     FM311700 23006KT 6SM BR VCTS OVC025CB
     FM311800 23006KT 4SM SHRA VCTS OVC040CB PROB30 3118/3121 2SM
      TSRA OVC030CB
     FM312100 22005KT 6SM -SHRA VCTS OVC050CB
     FM010300 20006KT P6SM VCSH OVC035
     FM010500 22006KT P6SM OVC022=

USA.gov is the U.S. government's official web portal to all federal, state and local government web resources and services.